Voltar ao catálogo

BREEZE-M DEB

LostHEO
NORAD 38634·DEBRIS·🇷🇺 Russia

Lançado Mar 14, 2008 de Baikonur Cosmodrome

Loading…

Próximas Passagens (próximas 24 horas)

TLE

ObsoletoSource: Space-Track

Época: Jan 20, 2023, 01:29 UTC

1 38634U 08011CH  23020.06240994 -.00002943  00000-0 -14643+0 0  9992
2 38634  48.6702 157.0386 6426446 147.7014 140.7263  2.96752215127629

Acompanhe BREEZE-M DEB em tempo real com AllMySat

Download on the App Store